Year,Month,Day,Hour,Minute,Value (Times are PST for temperature in C)
2012,05,27,00,00,17.40
2012,05,27,00,01,17.40
2012,05,27,00,02,17.30
2012,05,27,00,03,17.30
2012,05,27,00,04,17.30
2012,05,27,00,05,17.30
2012,05,27,00,06,17.20
2012,05,27,00,07,17.20
2012,05,27,00,08,17.20
2012,05,27,00,09,17.20
2012,05,27,00,10,17.20
2012,05,27,00,11,17.20
2012,05,27,00,12,17.20
2012,05,27,00,13,17.20
2012,05,27,00,14,17.30
2012,05,27,00,15,17.30
2012,05,27,00,16,17.30
2012,05,27,00,17,17.30
2012,05,27,00,18,17.40
2012,05,27,00,19,17.40
2012,05,27,00,20,17.50
2012,05,27,00,21,17.50
2012,05,27,00,22,17.50
2012,05,27,00,23,17.60
2012,05,27,00,24,17.60
2012,05,27,00,25,17.60
2012,05,27,00,26,17.50
2012,05,27,00,27,17.50
2012,05,27,00,28,17.50
2012,05,27,00,29,17.50
2012,05,27,00,30,17.40
2012,05,27,00,31,17.40
2012,05,27,00,32,17.40
2012,05,27,00,33,17.30
2012,05,27,00,34,17.30
2012,05,27,00,35,17.30
2012,05,27,00,36,17.20
2012,05,27,00,37,17.20
2012,05,27,00,38,17.10
2012,05,27,00,39,17.10
2012,05,27,00,40,17.00
2012,05,27,00,41,16.90
2012,05,27,00,42,16.90
2012,05,27,00,43,16.90
2012,05,27,00,44,16.80
2012,05,27,00,45,16.80
2012,05,27,00,46,16.70
2012,05,27,00,47,16.70
2012,05,27,00,48,16.60
2012,05,27,00,49,16.50
2012,05,27,00,50,16.50
2012,05,27,00,51,16.40
2012,05,27,00,52,16.40
2012,05,27,00,53,16.30
2012,05,27,00,54,16.30
2012,05,27,00,55,16.30
2012,05,27,00,56,16.20
2012,05,27,00,57,16.20
2012,05,27,00,58,16.10
2012,05,27,00,59,16.10
2012,05,27,01,00,16.00
2012,05,27,01,01,16.00
2012,05,27,01,02,15.90
2012,05,27,01,03,15.90
2012,05,27,01,04,15.80
2012,05,27,01,05,15.80
2012,05,27,01,06,15.70
2012,05,27,01,07,15.60
2012,05,27,01,08,15.60
2012,05,27,01,09,15.50
2012,05,27,01,10,15.40
2012,05,27,01,11,15.40
2012,05,27,01,12,15.30
2012,05,27,01,13,15.30
2012,05,27,01,14,15.30
2012,05,27,01,15,15.20
2012,05,27,01,16,15.10
2012,05,27,01,17,15.10
2012,05,27,01,18,15.00
2012,05,27,01,19,15.00
2012,05,27,01,20,15.00
2012,05,27,01,21,15.00
2012,05,27,01,22,15.00
2012,05,27,01,23,15.00
2012,05,27,01,24,14.90
2012,05,27,01,25,14.90
2012,05,27,01,26,14.90
2012,05,27,01,27,14.90
2012,05,27,01,28,14.90
2012,05,27,01,29,14.80
2012,05,27,01,30,14.80
2012,05,27,01,31,14.80
2012,05,27,01,32,14.90
2012,05,27,01,33,14.90
2012,05,27,01,34,14.90
2012,05,27,01,35,14.90
2012,05,27,01,36,14.90
2012,05,27,01,37,14.90
2012,05,27,01,38,14.80
2012,05,27,01,39,14.80
2012,05,27,01,40,14.90
2012,05,27,01,41,15.00
2012,05,27,01,42,15.00
2012,05,27,01,43,15.00
2012,05,27,01,44,15.00
2012,05,27,01,45,15.00
2012,05,27,01,46,15.00
2012,05,27,01,47,15.00
2012,05,27,01,48,15.10
2012,05,27,01,49,15.10
2012,05,27,01,50,15.20
2012,05,27,01,51,15.20
2012,05,27,01,52,15.30
2012,05,27,01,53,15.30
2012,05,27,01,54,15.30
2012,05,27,01,55,15.30
2012,05,27,01,56,15.30
2012,05,27,01,57,15.30
2012,05,27,01,58,15.30
2012,05,27,01,59,15.30
2012,05,27,02,00,15.30
2012,05,27,02,01,15.20
2012,05,27,02,02,15.20
2012,05,27,02,03,15.20
2012,05,27,02,04,15.10
2012,05,27,02,05,15.10
2012,05,27,02,06,15.00
2012,05,27,02,07,15.00
2012,05,27,02,08,15.00
2012,05,27,02,09,15.00
2012,05,27,02,10,15.00
2012,05,27,02,11,15.00
2012,05,27,02,12,15.00
2012,05,27,02,13,15.00
2012,05,27,02,14,15.00
2012,05,27,02,15,15.20
2012,05,27,02,16,15.20
2012,05,27,02,17,15.30
2012,05,27,02,18,15.30
2012,05,27,02,19,15.40
2012,05,27,02,20,15.50
2012,05,27,02,21,15.60
2012,05,27,02,22,15.60
2012,05,27,02,23,15.70
2012,05,27,02,24,15.70
2012,05,27,02,25,15.70
2012,05,27,02,26,15.70
2012,05,27,02,27,15.70
2012,05,27,02,28,15.70
2012,05,27,02,29,15.70
2012,05,27,02,30,15.70
2012,05,27,02,31,15.80
2012,05,27,02,32,15.80
2012,05,27,02,33,15.90
2012,05,27,02,34,15.90
2012,05,27,02,35,15.90
2012,05,27,02,36,15.90
2012,05,27,02,37,15.80
2012,05,27,02,38,15.80
2012,05,27,02,39,15.70
2012,05,27,02,40,15.70
2012,05,27,02,41,15.60
2012,05,27,02,42,15.60
2012,05,27,02,43,15.50
2012,05,27,02,44,15.50
2012,05,27,02,45,15.40
2012,05,27,02,46,15.40
2012,05,27,02,47,15.40
2012,05,27,02,48,15.30
2012,05,27,02,49,15.30
2012,05,27,02,50,15.30
2012,05,27,02,51,15.30
2012,05,27,02,52,15.20
2012,05,27,02,53,15.20
2012,05,27,02,54,15.10
2012,05,27,02,55,15.10
2012,05,27,02,56,15.10
2012,05,27,02,57,15.00
2012,05,27,02,58,15.00
2012,05,27,02,59,15.00
2012,05,27,03,00,15.10
2012,05,27,03,01,15.10
2012,05,27,03,02,15.10
2012,05,27,03,06,15.30
2012,05,27,03,07,15.30
2012,05,27,03,08,15.30
2012,05,27,03,09,15.30
2012,05,27,03,10,15.40
2012,05,27,03,11,15.40
2012,05,27,03,12,15.40
2012,05,27,03,13,15.40
2012,05,27,03,14,15.40
2012,05,27,03,15,15.30
2012,05,27,03,16,15.20
2012,05,27,03,17,15.20
2012,05,27,03,18,15.10
2012,05,27,03,19,15.10
2012,05,27,03,20,15.00
2012,05,27,03,21,15.00
2012,05,27,03,22,15.00
2012,05,27,03,23,15.00
2012,05,27,03,24,15.00
2012,05,27,03,25,15.00
2012,05,27,03,26,14.90
2012,05,27,03,27,14.80
2012,05,27,03,28,14.70
2012,05,27,03,29,14.70
2012,05,27,03,30,14.60
2012,05,27,03,31,14.50
2012,05,27,03,32,14.40
2012,05,27,03,33,14.30
2012,05,27,03,34,14.30
2012,05,27,03,35,14.20
2012,05,27,03,36,14.20
2012,05,27,03,37,14.10
2012,05,27,03,38,14.10
2012,05,27,03,39,14.00
2012,05,27,03,40,13.90
2012,05,27,03,41,13.90
2012,05,27,03,42,13.80
2012,05,27,03,43,13.80
2012,05,27,03,44,13.70
2012,05,27,03,45,13.60
2012,05,27,03,46,13.60
2012,05,27,03,47,13.50
2012,05,27,03,48,13.40
2012,05,27,03,49,13.40
2012,05,27,03,50,13.30
2012,05,27,03,51,13.20
2012,05,27,03,52,13.20
2012,05,27,03,53,13.20
2012,05,27,03,54,13.10
2012,05,27,03,55,13.10
2012,05,27,03,56,13.00
2012,05,27,03,57,12.90
2012,05,27,03,58,12.90
2012,05,27,03,59,12.80
2012,05,27,04,00,12.70
2012,05,27,04,01,12.70
2012,05,27,04,02,12.60
2012,05,27,04,03,12.50
2012,05,27,04,04,12.50
2012,05,27,04,05,12.40
2012,05,27,04,06,12.40
2012,05,27,04,07,12.30
2012,05,27,04,08,12.30
2012,05,27,04,09,12.20
2012,05,27,04,10,12.20
2012,05,27,04,11,12.10
2012,05,27,04,12,12.00
2012,05,27,04,13,12.00
2012,05,27,04,14,11.90
2012,05,27,04,15,11.80
2012,05,27,04,16,11.80
2012,05,27,04,17,11.70
2012,05,27,04,18,11.70
2012,05,27,04,19,11.60
2012,05,27,04,20,11.60
2012,05,27,04,21,11.60
2012,05,27,04,22,11.50
2012,05,27,04,23,11.50
2012,05,27,04,24,11.40
2012,05,27,04,25,11.40
2012,05,27,04,26,11.40
2012,05,27,04,27,11.30
2012,05,27,04,28,11.30
2012,05,27,04,29,11.30
2012,05,27,04,30,11.30
2012,05,27,04,31,11.20
2012,05,27,04,32,11.20
2012,05,27,04,33,11.20
2012,05,27,04,34,11.20
2012,05,27,04,35,11.20
2012,05,27,04,36,11.10
2012,05,27,04,37,11.10
2012,05,27,04,38,11.10
2012,05,27,04,39,11.10
2012,05,27,04,40,11.10
2012,05,27,04,41,11.10
2012,05,27,04,42,11.10
2012,05,27,04,43,11.00
2012,05,27,04,44,11.00
2012,05,27,04,45,11.00
2012,05,27,04,46,11.00
2012,05,27,04,47,11.00
2012,05,27,04,48,10.90
2012,05,27,04,49,10.90
2012,05,27,04,50,10.90
2012,05,27,04,51,10.90
2012,05,27,04,52,10.90
2012,05,27,04,53,10.90
2012,05,27,04,54,10.80
2012,05,27,04,55,10.80
2012,05,27,04,56,10.80
2012,05,27,04,57,10.80
2012,05,27,04,58,10.80
2012,05,27,04,59,10.80
2012,05,27,05,00,10.80
2012,05,27,05,01,10.80
2012,05,27,05,02,10.80
2012,05,27,05,03,10.80
2012,05,27,05,04,10.80
2012,05,27,05,05,10.80
2012,05,27,05,06,10.80
2012,05,27,05,07,10.80
2012,05,27,05,08,10.80
2012,05,27,05,09,10.80
2012,05,27,05,10,10.70
2012,05,27,05,11,10.70
2012,05,27,05,12,10.70
2012,05,27,05,13,10.70
2012,05,27,05,14,10.70
2012,05,27,05,15,10.70
2012,05,27,05,16,10.70
2012,05,27,05,17,10.70
2012,05,27,05,18,10.70
2012,05,27,05,19,10.60
2012,05,27,05,20,10.60
2012,05,27,05,21,10.60
2012,05,27,05,22,10.60
2012,05,27,05,23,10.60
2012,05,27,05,24,10.60
2012,05,27,05,25,10.60
2012,05,27,05,26,10.60
2012,05,27,05,27,10.60
2012,05,27,05,28,10.50
2012,05,27,05,29,10.50
2012,05,27,05,30,10.50
2012,05,27,05,31,10.50
2012,05,27,05,32,10.50
2012,05,27,05,33,10.50
2012,05,27,05,34,10.40
2012,05,27,05,35,10.40
2012,05,27,05,36,10.40
2012,05,27,05,37,10.40
2012,05,27,05,38,10.40
2012,05,27,05,39,10.40
2012,05,27,05,40,10.40
2012,05,27,05,41,10.40
2012,05,27,05,42,10.40
2012,05,27,05,43,10.40
2012,05,27,05,44,10.40
2012,05,27,05,45,10.40
2012,05,27,05,46,10.40
2012,05,27,05,47,10.40
2012,05,27,05,48,10.40
2012,05,27,05,49,10.40
2012,05,27,05,50,10.40
2012,05,27,05,51,10.40
2012,05,27,05,52,10.40
2012,05,27,05,53,10.40
2012,05,27,05,54,10.40
2012,05,27,05,55,10.40
2012,05,27,05,56,10.30
2012,05,27,05,57,10.40
2012,05,27,05,58,10.40
2012,05,27,05,59,10.40
2012,05,27,06,00,10.40
2012,05,27,06,01,10.40
2012,05,27,06,02,10.40
2012,05,27,06,03,10.40
2012,05,27,06,04,10.40
2012,05,27,06,05,10.40
2012,05,27,06,06,10.40
2012,05,27,06,07,10.40
2012,05,27,06,08,10.50
2012,05,27,06,09,10.50
2012,05,27,06,10,10.50
2012,05,27,06,11,10.50
2012,05,27,06,12,10.50
2012,05,27,06,13,10.50
2012,05,27,06,14,10.50
2012,05,27,06,15,10.50
2012,05,27,06,16,10.50
2012,05,27,06,17,10.50
2012,05,27,06,18,10.50
2012,05,27,06,19,10.50
2012,05,27,06,20,10.50
2012,05,27,06,21,10.50
2012,05,27,06,22,10.40
2012,05,27,06,23,10.40
2012,05,27,06,24,10.40
2012,05,27,06,25,10.40
2012,05,27,06,26,10.40
2012,05,27,06,27,10.50
2012,05,27,06,28,10.50
2012,05,27,06,29,10.50
2012,05,27,06,30,10.50
2012,05,27,06,31,10.50
2012,05,27,06,32,10.50
2012,05,27,06,33,10.60
2012,05,27,06,34,10.60
2012,05,27,06,35,10.60
2012,05,27,06,36,10.60
2012,05,27,06,37,10.60
2012,05,27,06,38,10.60
2012,05,27,06,39,10.60
2012,05,27,06,40,10.60
2012,05,27,06,41,10.60
2012,05,27,06,42,10.60
2012,05,27,06,43,10.60
2012,05,27,06,44,10.60
2012,05,27,06,45,10.60
2012,05,27,06,46,10.60
2012,05,27,06,47,10.60
2012,05,27,06,48,10.60
2012,05,27,06,49,10.60
2012,05,27,06,50,10.60
2012,05,27,06,51,10.60
2012,05,27,06,52,10.60
2012,05,27,06,53,10.60
2012,05,27,06,54,10.70
2012,05,27,06,55,10.70
2012,05,27,06,56,10.70
2012,05,27,06,57,10.70
2012,05,27,06,58,10.70
2012,05,27,06,59,10.70
2012,05,27,07,00,10.70
2012,05,27,07,01,10.70
2012,05,27,07,02,10.70
2012,05,27,07,03,10.70
2012,05,27,07,04,10.70
2012,05,27,07,05,10.70
2012,05,27,07,06,10.80
2012,05,27,07,07,10.80
2012,05,27,07,08,10.80
2012,05,27,07,09,10.80
2012,05,27,07,10,10.80
2012,05,27,07,11,10.80
2012,05,27,07,12,10.80
2012,05,27,07,13,10.80
2012,05,27,07,14,10.80
2012,05,27,07,15,10.90
2012,05,27,07,16,10.90
2012,05,27,07,17,10.90
2012,05,27,07,18,10.90
2012,05,27,07,19,10.90
2012,05,27,07,20,11.00
2012,05,27,07,21,11.00
2012,05,27,07,22,11.10
2012,05,27,07,23,11.10
2012,05,27,07,24,11.20
2012,05,27,07,25,11.20
2012,05,27,07,26,11.30
2012,05,27,07,27,11.40
2012,05,27,07,28,11.50
2012,05,27,07,29,11.50
2012,05,27,07,30,11.60
2012,05,27,07,31,11.60
2012,05,27,07,32,11.60
2012,05,27,07,33,11.70
2012,05,27,07,34,11.70
2012,05,27,07,35,11.70
2012,05,27,07,36,11.80
2012,05,27,07,37,11.80
2012,05,27,07,38,11.90
2012,05,27,07,39,12.00
2012,05,27,07,40,12.00
2012,05,27,07,41,12.10
2012,05,27,07,42,12.20
2012,05,27,07,43,12.20
2012,05,27,07,44,12.30
2012,05,27,07,45,12.20
2012,05,27,07,46,12.20
2012,05,27,07,47,12.20
2012,05,27,07,48,12.20
2012,05,27,07,49,12.20
2012,05,27,07,50,12.30
2012,05,27,07,51,12.30
2012,05,27,07,52,12.30
2012,05,27,07,53,12.30
2012,05,27,07,54,12.30
2012,05,27,07,55,12.40
2012,05,27,07,56,12.40
2012,05,27,07,57,12.50
2012,05,27,07,58,12.60
2012,05,27,07,59,12.60
2012,05,27,08,00,12.70
2012,05,27,08,01,12.80
2012,05,27,08,02,12.80
2012,05,27,08,03,12.90
2012,05,27,08,04,12.90
2012,05,27,08,05,12.90
2012,05,27,08,06,13.00
2012,05,27,08,07,13.00
2012,05,27,08,08,13.00
2012,05,27,08,09,13.00
2012,05,27,08,10,13.10
2012,05,27,08,11,13.00
2012,05,27,08,12,13.00
2012,05,27,08,13,12.90
2012,05,27,08,14,12.80
2012,05,27,08,15,12.70
2012,05,27,08,16,12.60
2012,05,27,08,17,12.60
2012,05,27,08,18,12.60
2012,05,27,08,19,12.70
2012,05,27,08,20,12.70
2012,05,27,08,21,12.80
2012,05,27,08,22,12.90
2012,05,27,08,23,12.90
2012,05,27,08,24,13.00
2012,05,27,08,25,13.00
2012,05,27,08,26,13.10
2012,05,27,08,27,13.20
2012,05,27,08,28,13.30
2012,05,27,08,29,13.40
2012,05,27,08,30,13.50
2012,05,27,08,31,13.50
2012,05,27,08,32,13.60
2012,05,27,08,33,13.70
2012,05,27,08,34,13.70
2012,05,27,08,35,13.70
2012,05,27,08,36,13.70
2012,05,27,08,37,13.60
2012,05,27,08,38,13.50
2012,05,27,08,39,13.50
2012,05,27,08,40,13.50
2012,05,27,08,41,13.50
2012,05,27,08,42,13.60
2012,05,27,08,43,13.70
2012,05,27,08,44,13.80
2012,05,27,08,45,13.80
2012,05,27,08,46,13.70
2012,05,27,08,47,13.60
2012,05,27,08,48,13.50
2012,05,27,08,49,13.40
2012,05,27,08,50,13.40
2012,05,27,08,51,13.40
2012,05,27,08,52,13.40
2012,05,27,08,53,13.40
2012,05,27,08,54,13.30
2012,05,27,08,55,13.30
2012,05,27,08,56,13.30
2012,05,27,08,57,13.30
2012,05,27,08,58,13.40
2012,05,27,08,59,13.40
2012,05,27,09,00,13.40
2012,05,27,09,01,13.40
2012,05,27,09,02,13.40
2012,05,27,09,03,13.40
2012,05,27,09,04,13.40
2012,05,27,09,05,13.40
2012,05,27,09,06,13.40
2012,05,27,09,07,13.40
2012,05,27,09,08,13.40
2012,05,27,09,09,13.40
2012,05,27,09,10,13.30
2012,05,27,09,11,13.30
2012,05,27,09,12,13.30
2012,05,27,09,13,13.40
2012,05,27,09,14,13.40
2012,05,27,09,15,13.40
2012,05,27,09,16,13.30
2012,05,27,09,17,13.30
2012,05,27,09,18,13.40
2012,05,27,09,19,13.50
2012,05,27,09,20,13.50
2012,05,27,09,21,13.60
2012,05,27,09,22,13.70
2012,05,27,09,23,13.70
2012,05,27,09,24,13.80
2012,05,27,09,25,13.90
2012,05,27,09,26,13.90
2012,05,27,09,27,13.90
2012,05,27,09,28,13.90
2012,05,27,09,29,13.90
2012,05,27,09,30,13.90
2012,05,27,09,31,13.90
2012,05,27,09,32,13.90
2012,05,27,09,33,13.80
2012,05,27,09,34,13.80
2012,05,27,09,35,13.80
2012,05,27,09,36,13.80
2012,05,27,09,37,13.80
2012,05,27,09,38,13.80
2012,05,27,09,39,13.90
2012,05,27,09,40,14.00
2012,05,27,09,41,14.10
2012,05,27,09,42,14.20
2012,05,27,09,43,14.20
2012,05,27,09,44,14.20
2012,05,27,09,45,14.10
2012,05,27,09,46,14.20
2012,05,27,09,47,14.20
2012,05,27,09,48,14.30
2012,05,27,09,49,14.20
2012,05,27,09,50,14.20
2012,05,27,09,51,14.20
2012,05,27,09,52,14.10
2012,05,27,09,53,14.20
2012,05,27,09,54,14.20
2012,05,27,09,55,14.10
2012,05,27,09,56,14.10
2012,05,27,09,57,14.00
2012,05,27,09,58,13.90
2012,05,27,09,59,13.80
2012,05,27,10,00,13.80
2012,05,27,10,01,13.70
2012,05,27,10,02,13.80
2012,05,27,10,03,13.80
2012,05,27,10,04,13.80
2012,05,27,10,05,13.90
2012,05,27,10,06,13.90
2012,05,27,10,07,13.90
2012,05,27,10,08,13.90
2012,05,27,10,09,14.00
2012,05,27,10,10,14.00
2012,05,27,10,11,13.90
2012,05,27,10,12,13.90
2012,05,27,10,13,14.00
2012,05,27,10,14,14.00
2012,05,27,10,15,14.00
2012,05,27,10,16,13.90
2012,05,27,10,17,13.90
2012,05,27,10,18,14.00
2012,05,27,10,19,14.00
2012,05,27,10,20,14.00
2012,05,27,10,21,14.00
2012,05,27,10,22,14.00
2012,05,27,10,23,14.00
2012,05,27,10,24,14.00
2012,05,27,10,25,14.00
2012,05,27,10,26,14.00
2012,05,27,10,27,13.90
2012,05,27,10,28,13.80
2012,05,27,10,29,13.80
2012,05,27,10,30,13.80
2012,05,27,10,31,13.80
2012,05,27,10,32,13.80
2012,05,27,10,33,13.80
2012,05,27,10,34,13.80
2012,05,27,10,35,13.90
2012,05,27,10,36,13.90
2012,05,27,10,37,14.00
2012,05,27,10,38,14.00
2012,05,27,10,39,14.10
2012,05,27,10,40,14.20
2012,05,27,10,41,14.30
2012,05,27,10,42,14.40
2012,05,27,10,43,14.60
2012,05,27,10,44,14.70
2012,05,27,10,45,14.70
2012,05,27,10,46,14.80
2012,05,27,10,47,14.90
2012,05,27,10,48,15.00
2012,05,27,10,49,14.90
2012,05,27,10,50,14.80
2012,05,27,10,51,14.80
2012,05,27,10,52,14.80
2012,05,27,10,53,14.90
2012,05,27,10,54,15.00
2012,05,27,10,55,15.00
2012,05,27,10,56,15.00
2012,05,27,10,57,15.00
2012,05,27,10,58,15.00
2012,05,27,10,59,15.00
2012,05,27,11,00,14.90
2012,05,27,11,01,14.90
2012,05,27,11,02,15.00
2012,05,27,11,03,15.00
2012,05,27,11,04,15.00
2012,05,27,11,05,15.00
2012,05,27,11,06,15.00
2012,05,27,11,07,15.00
2012,05,27,11,08,15.00
2012,05,27,11,09,15.00
2012,05,27,11,10,15.00
2012,05,27,11,11,15.00
2012,05,27,11,12,15.00
2012,05,27,11,13,15.00
2012,05,27,11,14,15.10
2012,05,27,11,15,15.20
2012,05,27,11,16,15.20
2012,05,27,11,17,15.30
2012,05,27,11,18,15.30
2012,05,27,11,19,15.40
2012,05,27,11,20,15.50
2012,05,27,11,21,15.50
2012,05,27,11,22,15.60
2012,05,27,11,23,15.70
2012,05,27,11,24,15.80
2012,05,27,11,25,15.80
2012,05,27,11,26,15.80
2012,05,27,11,27,15.70
2012,05,27,11,28,15.70
2012,05,27,11,29,15.70
2012,05,27,11,30,15.80
2012,05,27,11,31,15.80
2012,05,27,11,32,15.80
2012,05,27,11,33,15.80
2012,05,27,11,34,15.80
2012,05,27,11,35,15.80
2012,05,27,11,36,15.90
2012,05,27,11,37,15.90
2012,05,27,11,38,16.00
2012,05,27,11,39,16.10
2012,05,27,11,40,16.10
2012,05,27,11,41,16.20
2012,05,27,11,42,16.20
2012,05,27,11,43,16.20
2012,05,27,11,44,16.10
2012,05,27,11,45,16.10
2012,05,27,11,46,16.00
2012,05,27,11,47,15.90
2012,05,27,11,48,15.80
2012,05,27,11,49,15.80
2012,05,27,11,50,15.80
2012,05,27,11,51,15.80
2012,05,27,11,52,15.80
2012,05,27,11,53,15.90
2012,05,27,11,54,15.90
2012,05,27,11,55,15.90
2012,05,27,11,56,16.00
2012,05,27,11,57,16.00
2012,05,27,11,58,16.10
2012,05,27,11,59,16.10
2012,05,27,12,00,16.10
2012,05,27,12,01,16.20
2012,05,27,12,02,16.30
2012,05,27,12,03,16.20
2012,05,27,12,04,16.20
2012,05,27,12,05,16.20
2012,05,27,12,06,16.20
2012,05,27,12,07,16.20
2012,05,27,12,08,16.10
2012,05,27,12,09,16.10
2012,05,27,12,10,16.20
2012,05,27,12,11,16.20
2012,05,27,12,12,16.30
2012,05,27,12,13,16.30
2012,05,27,12,14,16.40
2012,05,27,12,15,16.40
2012,05,27,12,16,16.40
2012,05,27,12,17,16.30
2012,05,27,12,18,16.40
2012,05,27,12,19,16.40
2012,05,27,12,20,16.50
2012,05,27,12,21,16.50
2012,05,27,12,22,16.50
2012,05,27,12,23,16.40
2012,05,27,12,24,16.40
2012,05,27,12,25,16.40
2012,05,27,12,26,16.40
2012,05,27,12,27,16.30
2012,05,27,12,28,16.30
2012,05,27,12,29,16.30
2012,05,27,12,30,16.30
2012,05,27,12,31,16.20
2012,05,27,12,32,16.20
2012,05,27,12,33,16.20
2012,05,27,12,34,16.30
2012,05,27,12,35,16.30
2012,05,27,12,36,16.10
2012,05,27,12,37,16.00
2012,05,27,12,38,15.90
2012,05,27,12,39,15.80
2012,05,27,12,40,15.90
2012,05,27,12,41,15.80
2012,05,27,12,42,15.70
2012,05,27,12,43,15.70
2012,05,27,12,44,15.80
2012,05,27,12,45,15.80
2012,05,27,12,46,15.80
2012,05,27,12,47,15.90
2012,05,27,12,48,15.90
2012,05,27,12,49,15.90
2012,05,27,12,50,15.90
2012,05,27,12,51,16.00
2012,05,27,12,52,16.10
2012,05,27,12,53,16.20
2012,05,27,12,54,16.20
2012,05,27,12,55,16.20
2012,05,27,12,56,16.30
2012,05,27,12,57,16.40
2012,05,27,12,58,16.50
2012,05,27,12,59,16.50
2012,05,27,13,00,16.40
2012,05,27,13,01,16.50
2012,05,27,13,02,16.50
2012,05,27,13,03,16.60
2012,05,27,13,04,16.60
2012,05,27,13,05,16.60
2012,05,27,13,06,16.70
2012,05,27,13,07,16.80
2012,05,27,13,08,16.90
2012,05,27,13,09,16.90
2012,05,27,13,10,16.80
2012,05,27,13,11,16.80
2012,05,27,13,12,16.80
2012,05,27,13,13,16.70
2012,05,27,13,14,16.60
2012,05,27,13,15,16.50
2012,05,27,13,16,16.50
2012,05,27,13,17,16.50
2012,05,27,13,18,16.50
2012,05,27,13,19,16.60
2012,05,27,13,20,16.60
2012,05,27,13,21,16.60
2012,05,27,13,22,16.60
2012,05,27,13,23,16.60
2012,05,27,13,24,16.70
2012,05,27,13,25,16.80
2012,05,27,13,26,16.80
2012,05,27,13,27,16.80
2012,05,27,13,28,16.80
2012,05,27,13,29,16.80
2012,05,27,13,30,16.80
2012,05,27,13,31,16.70
2012,05,27,13,32,16.60
2012,05,27,13,33,16.40
2012,05,27,13,34,16.30
2012,05,27,13,35,16.20
2012,05,27,13,36,16.20
2012,05,27,13,37,16.20
2012,05,27,13,38,16.20
2012,05,27,13,39,16.20
2012,05,27,13,40,16.20
2012,05,27,13,41,16.10
2012,05,27,13,42,16.10
2012,05,27,13,43,16.10
2012,05,27,13,44,16.00
2012,05,27,13,45,16.00
2012,05,27,13,46,15.90
2012,05,27,13,47,15.80
2012,05,27,13,48,15.80
2012,05,27,13,49,15.70
2012,05,27,13,50,15.80
2012,05,27,13,51,15.80
2012,05,27,13,52,15.80
2012,05,27,13,53,15.80
2012,05,27,13,54,15.80
2012,05,27,13,55,15.90
2012,05,27,13,56,15.90
2012,05,27,13,57,15.90
2012,05,27,13,58,15.90
2012,05,27,13,59,15.90
2012,05,27,14,00,15.80
2012,05,27,14,01,15.60
2012,05,27,14,02,15.60
2012,05,27,14,03,15.50
2012,05,27,14,04,15.40
2012,05,27,14,05,15.30
2012,05,27,14,06,15.30
2012,05,27,14,07,15.30
2012,05,27,14,08,15.30
2012,05,27,14,09,15.30
2012,05,27,14,10,15.30
2012,05,27,14,11,15.30
2012,05,27,14,12,15.20
2012,05,27,14,13,15.20
2012,05,27,14,14,15.30
2012,05,27,14,15,15.30
2012,05,27,14,16,15.40
2012,05,27,14,17,15.40
2012,05,27,14,18,15.40
2012,05,27,14,19,15.50
2012,05,27,14,20,15.50
2012,05,27,14,21,15.60
2012,05,27,14,22,15.70
2012,05,27,14,23,15.70
2012,05,27,14,24,15.70
2012,05,27,14,25,15.70
2012,05,27,14,26,15.70
2012,05,27,14,27,15.70
2012,05,27,14,28,15.70
2012,05,27,14,29,15.70
2012,05,27,14,30,15.80
2012,05,27,14,31,15.80
2012,05,27,14,32,15.80
2012,05,27,14,33,15.90
2012,05,27,14,34,15.90
2012,05,27,14,35,16.00
2012,05,27,14,36,16.00
2012,05,27,14,37,16.00
2012,05,27,14,38,16.10
2012,05,27,14,39,16.10
2012,05,27,14,40,16.00
2012,05,27,14,41,16.00
2012,05,27,14,42,15.90
2012,05,27,14,43,15.90
2012,05,27,14,44,15.90
2012,05,27,14,45,16.00
2012,05,27,14,46,16.10
2012,05,27,14,47,16.10
2012,05,27,14,48,16.10
2012,05,27,14,49,16.00
2012,05,27,14,50,16.00
2012,05,27,14,51,15.90
2012,05,27,14,52,15.90
2012,05,27,14,53,15.90
2012,05,27,14,54,15.90
2012,05,27,14,55,15.90
2012,05,27,14,56,15.90
2012,05,27,14,57,15.90
2012,05,27,14,58,15.90
2012,05,27,14,59,15.90
2012,05,27,15,00,15.80
2012,05,27,15,01,15.70
2012,05,27,15,02,15.70
2012,05,27,15,03,15.70
2012,05,27,15,04,15.70
2012,05,27,15,05,15.70
2012,05,27,15,06,15.70
2012,05,27,15,07,15.80
2012,05,27,15,08,15.80
2012,05,27,15,09,15.90
2012,05,27,15,10,15.90
2012,05,27,15,11,16.00
2012,05,27,15,12,16.10
2012,05,27,15,13,16.10
2012,05,27,15,14,16.10
2012,05,27,15,15,16.00
2012,05,27,15,16,16.00
2012,05,27,15,17,15.90
2012,05,27,15,18,15.90
2012,05,27,15,19,15.90
2012,05,27,15,20,15.90
2012,05,27,15,21,15.90
2012,05,27,15,22,15.90
2012,05,27,15,23,15.90
2012,05,27,15,24,15.90
2012,05,27,15,25,15.90
2012,05,27,15,26,15.90
2012,05,27,15,27,15.90
2012,05,27,15,28,15.80
2012,05,27,15,29,15.80
2012,05,27,15,30,15.80
2012,05,27,15,31,15.80
2012,05,27,15,32,15.80
2012,05,27,15,33,15.80
2012,05,27,15,34,15.80
2012,05,27,15,35,15.70
2012,05,27,15,36,15.70
2012,05,27,15,37,15.70
2012,05,27,15,38,15.60
2012,05,27,15,39,15.60
2012,05,27,15,40,15.60
2012,05,27,15,41,15.70
2012,05,27,15,42,15.70
2012,05,27,15,43,15.70
2012,05,27,15,44,15.70
2012,05,27,15,45,15.70
2012,05,27,15,46,15.70
2012,05,27,15,47,15.70
2012,05,27,15,48,15.70
2012,05,27,15,49,15.70
2012,05,27,15,50,15.80
2012,05,27,15,51,15.80
2012,05,27,15,52,15.80
2012,05,27,15,53,15.90
2012,05,27,15,54,15.90
2012,05,27,15,55,15.90
2012,05,27,15,56,15.90
2012,05,27,15,57,15.80
2012,05,27,15,58,15.80
2012,05,27,15,59,15.80
2012,05,27,16,00,15.80
2012,05,27,16,01,15.80
2012,05,27,16,02,15.80
2012,05,27,16,03,15.80
2012,05,27,16,04,15.80
2012,05,27,16,05,15.70
2012,05,27,16,06,15.70
2012,05,27,16,07,15.60
2012,05,27,16,08,15.50
2012,05,27,16,09,15.40
2012,05,27,16,10,15.30
2012,05,27,16,11,15.20
2012,05,27,16,12,15.10
2012,05,27,16,13,15.10
2012,05,27,16,14,15.00
2012,05,27,16,15,15.00
2012,05,27,16,16,15.00
2012,05,27,16,17,15.00
2012,05,27,16,18,15.00
2012,05,27,16,19,15.00
2012,05,27,16,20,15.00
2012,05,27,16,21,15.00
2012,05,27,16,22,15.00
2012,05,27,16,23,15.00
2012,05,27,16,24,15.00
2012,05,27,16,25,15.00
2012,05,27,16,26,15.00
2012,05,27,16,27,15.00
2012,05,27,16,28,15.00
2012,05,27,16,29,15.00
2012,05,27,16,30,15.00
2012,05,27,16,31,15.00
2012,05,27,16,32,15.00
2012,05,27,16,33,15.00
2012,05,27,16,34,15.00
2012,05,27,16,35,15.00
2012,05,27,16,36,14.90
2012,05,27,16,37,14.80
2012,05,27,16,38,14.70
2012,05,27,16,39,14.70
2012,05,27,16,40,14.70
2012,05,27,16,41,14.70
2012,05,27,16,42,14.70
2012,05,27,16,43,14.70
2012,05,27,16,44,14.70
2012,05,27,16,45,14.70
2012,05,27,16,46,14.70
2012,05,27,16,47,14.70
2012,05,27,16,48,14.70
2012,05,27,16,49,14.70
2012,05,27,16,50,14.70
2012,05,27,16,51,14.70
2012,05,27,16,52,14.60
2012,05,27,16,53,14.60
2012,05,27,16,54,14.60
2012,05,27,16,55,14.60
2012,05,27,16,56,14.50
2012,05,27,16,57,14.50
2012,05,27,16,58,14.50
2012,05,27,16,59,14.50
2012,05,27,17,00,14.50
2012,05,27,17,01,14.50
2012,05,27,17,02,14.60
2012,05,27,17,03,14.50
2012,05,27,17,04,14.50
2012,05,27,17,05,14.50
2012,05,27,17,06,14.50
2012,05,27,17,07,14.50
2012,05,27,17,08,14.50
2012,05,27,17,09,14.40
2012,05,27,17,10,14.40
2012,05,27,17,11,14.40
2012,05,27,17,12,14.40
2012,05,27,17,13,14.30
2012,05,27,17,14,14.30
2012,05,27,17,15,14.30
2012,05,27,17,16,14.30
2012,05,27,17,17,14.30
2012,05,27,17,18,14.30
2012,05,27,17,19,14.30
2012,05,27,17,20,14.30
2012,05,27,17,21,14.30
2012,05,27,17,22,14.30